EW5286 Weather Reports


Display with metric or nautical units.
time (UTC)temp
F
wind
direction
speed
MPH
gust
MPH
rain 1hr
in
rain 24hr
in
rain mn
in
humidity
%
barometer
mb
20260509220948 83 125 1.0 2.0 0.00 0.00 0.00 56 1009.1
20260509220439 83 56 1.0 3.0 0.00 0.00 0.00 54 1009.0
20260509220032 82 60 0.0 3.0 0.00 0.00 0.00 56 1008.2
20260509215928 82 69 1.0 4.0 0.00 0.00 0.00 56 1009.1
20260509215432 83 47 0.0 4.0 0.00 0.00 0.00 55 1009.1
20260509214924 82 211 1.0 3.0 0.00 0.00 0.00 53 1009.1
20260509214543 82 280 0.0 4.0 0.00 0.00 0.00 54 1008.1
20260509214455 82 246 1.0 4.0 0.00 0.00 0.00 54 1009.0
20260509213946 83 22 1.0 4.0 0.00 0.00 0.00 52 1009.1
20260509213428 83 63 1.0 3.0 0.00 0.00 0.00 50 1009.1
20260509213030 83 333 0.0 2.0 0.00 0.00 0.00 49 1008.2
20260509212934 83 335 1.0 2.0 0.00 0.00 0.00 47 1009.1
20260509212437 83 131 1.0 2.0 0.00 0.00 0.00 51 1009.1
20260509211929 82 49 1.0 3.0 0.00 0.00 0.00 50 1009.2
20260509211543 82 48 0.0 3.0 0.00 0.00 0.00 48 1008.3
20260509211439 82 48 0.0 3.0 0.00 0.00 0.00 48 1009.2
20260509210921 83 42 1.0 2.0 0.00 0.00 0.00 47 1009.3
20260509210454 82 24 1.0 3.0 0.00 0.00 0.00 47 1009.4
20260509210023 82 50 0.0 4.0 0.00 0.00 0.00 48 1008.5
20260509205921 82 51 1.0 4.0 0.00 0.00 0.00 48 1009.5
20260509205424 83 1 1.0 4.0 0.00 0.00 0.00 47 1009.4
20260509204936 83 46 1.0 6.0 0.00 0.00 0.00 45 1009.5
20260509204532 83 149 3.0 6.0 0.00 0.00 0.00 46 1008.6
20260509204446 83 217 3.0 6.0 0.00 0.00 0.00 45 1009.5
20260509203936 83 79 1.0 2.0 0.00 0.00 0.00 51 1009.6
20260509203438 83 127 0.0 2.0 0.00 0.00 0.00 49 1009.6
20260509203024 82 170 0.0 4.0 0.00 0.00 0.00 49 1008.7
20260509202948 83 177 0.0 4.0 0.00 0.00 0.00 47 1009.6
20260509202438 82 200 2.0 4.0 0.00 0.00 0.00 46 1009.8
20260509201950 82 174 2.0 4.0 0.00 0.00 0.00 50 1009.9
20260509201505 81 34 1.0 3.0 0.00 0.00 0.00 49 1009.1
20260509201448 82 70 1.0 3.0 0.00 0.00 0.00 50 1010.0
20260509200938 81 27 1.0 3.0 0.00 0.00 0.00 48 1010.1
20260509200431 82 11 1.0 3.0 0.00 0.00 0.00 50 1010.1
20260509200103 80 291 0.0 3.0 0.00 0.00 0.00 53 1009.2
20260509195930 81 73 1.0 3.0 0.00 0.00 0.00 52 1010.1
20260509195422 81 41 0.0 4.0 0.00 0.00 0.00 53 1010.1
20260509194935 81 53 2.0 4.0 0.00 0.00 0.00 53 1010.2
20260509194601 80 53 2.0 4.0 0.00 0.00 0.00 52 1009.3
20260509194435 81 54 1.0 3.0 0.00 0.00 0.00 52 1010.2
20260509193926 81 49 0.0 4.0 0.00 0.00 0.00 53 1010.3
20260509193426 81 57 3.0 4.0 0.00 0.00 0.00 51 1010.3
20260509193137 81 65 0.0 3.0 0.00 0.00 0.00 53 1009.4
20260509193005 81 68 1.0 3.0 0.00 0.00 0.00 54 1010.3
20260509192427 81 223 1.0 3.0 0.00 0.00 0.00 51 1010.3
20260509191939 82 96 0.0 1.0 0.00 0.00 0.00 56 1010.3
20260509191614 81 140 0.0 1.0 0.00 0.00 0.00 55 1009.4
20260509191439 81 141 0.0 2.0 0.00 0.00 0.00 55 1010.3
20260509190931 81 143 0.0 2.0 0.00 0.00 0.00 56 1010.4
20260509190441 81 53 0.0 2.0 0.00 0.00 0.00 58 1010.4
20260509190041 80 52 0.0 2.0 0.00 0.00 0.00 57 1009.5
20260509185922 81 52 1.0 2.0 0.00 0.00 0.00 58 1010.4
20260509185432 80 77 1.0 2.0 0.00 0.00 0.00 58 1010.4
20260509185000 80 14 0.0 3.0 0.00 0.00 0.00 61 1010.4
20260509184532 79 70 1.0 3.0 0.00 0.00 0.00 58 1009.6
20260509184428 80 304 2.0 3.0 0.00 0.00 0.00 57 1010.5
20260509183931 80 136 1.0 2.0 0.00 0.00 0.00 56 1010.6
20260509183450 80 9 0.0 3.0 0.00 0.00 0.00 58 1010.6
20260509183015 78 291 1.0 3.0 0.00 0.00 0.00 59 1009.8
20260509182930 79 281 1.0 3.0 0.00 0.00 0.00 56 1010.6
20260509182442 79 51 1.0 4.0 0.00 0.00 0.00 57 1010.7
20260509181924 78 58 2.0 4.0 0.00 0.00 0.00 57 1010.7
20260509181520 78 59 0.0 3.0 0.00 0.00 0.00 59 1009.8
20260509181435 78 61 0.0 3.0 0.00 0.00 0.00 59 1010.7
20260509180946 78 61 1.0 4.0 0.00 0.00 0.00 62 1010.7
20260509180430 78 58 1.0 4.0 0.00 0.00 0.00 61 1010.7
20260509180029 77 57 2.0 4.0 0.00 0.00 0.00 62 1009.8
20260509175959 78 58 3.0 4.0 0.00 0.00 0.00 61 1010.7
20260509175449 78 61 2.0 4.0 0.00 0.00 0.00 64 1010.8
20260509174940 78 249 1.0 4.0 0.00 0.00 0.00 63 1010.8
20260509174609 77 65 0.0 3.0 0.00 0.00 0.00 64 1010.0
20260509174421 78 60 0.0 3.0 0.00 0.00 0.00 65 1010.9
20260509173933 77 63 1.0 4.0 0.00 0.00 0.00 65 1010.9
20260509173439 77 64 2.0 4.0 0.00 0.00 0.00 66 1010.9
20260509173045 77 74 1.0 4.0 0.00 0.00 0.00 65 1010.1
20260509172921 77 55 2.0 4.0 0.00 0.00 0.00 65 1010.9
20260509172432 77 302 0.0 6.0 0.00 0.00 0.00 66 1011.0
20260509171926 77 61 3.0 6.0 0.00 0.00 0.00 65 1010.9
20260509171552 76 46 1.0 4.0 0.00 0.00 0.00 66 1010.1
20260509171425 77 62 1.0 5.0 0.00 0.00 0.00 65 1010.9
20260509170937 76 55 0.0 5.0 0.00 0.00 0.00 65 1011.0
20260509170449 76 58 3.0 5.0 0.00 0.00 0.00 67 1011.0
20260509170040 75 58 2.0 6.0 0.00 0.00 0.00 67 1010.1
20260509165958 76 67 1.0 6.0 0.00 0.00 0.00 68 1011.0
20260509165449 76 69 2.0 6.0 0.00 0.00 0.00 68 1010.9
20260509164930 76 57 2.0 5.0 0.00 0.00 0.00 69 1010.9
20260509164506 75 58 1.0 4.0 0.00 0.00 0.00 69 1010.0
20260509164421 75 57 1.0 4.0 0.00 0.00 0.00 69 1010.9
20260509163952 75 63 2.0 4.0 0.00 0.00 0.00 71 1010.8
20260509163442 75 60 2.0 4.0 0.00 0.00 0.00 71 1010.7
20260509163035 75 75 1.0 4.0 0.00 0.00 0.00 72 1009.9
20260509162926 75 86 1.0 3.0 0.00 0.00 0.00 72 1010.7
20260509162436 75 58 0.0 4.0 0.00 0.00 0.00 72 1010.8
20260509161947 74 58 2.0 4.0 0.00 0.00 0.00 71 1010.8
20260509161605 74 52 1.0 5.0 0.00 0.00 0.00 71 1010.1
20260509161428 74 54 2.0 5.0 0.00 0.00 0.00 71 1010.8
20260509161000 74 57 3.0 5.0 0.00 0.00 0.00 72 1010.8
20260509160431 74 57 1.0 3.0 0.00 0.00 0.00 73 1010.8
20260509160052 73 72 0.0 5.0 0.00 0.00 0.00 73 1010.0
20260509155932 74 68 2.0 5.0 0.00 0.00 0.00 74 1010.7
20260509155423 74 58 2.0 5.0 0.00 0.00 0.00 74 1010.7
20260509154935 73 357 1.0 5.0 0.00 0.00 0.00 75 1010.8
20260509154600 72 55 1.0 5.0 0.00 0.00 0.00 75 1009.9
20260509154436 73 49 2.0 5.0 0.00 0.00 0.00 75 1010.7
20260509153947 73 53 2.0 5.0 0.00 0.00 0.00 75 1010.7
20260509153436 73 51 0.0 2.0 0.00 0.00 0.00 75 1010.7
20260509153025 72 36 0.0 2.0 0.00 0.00 0.00 76 1010.0
20260509152926 72 46 1.0 2.0 0.00 0.00 0.00 76 1010.7
20260509152448 72 45 1.0 2.0 0.00 0.00 0.00 76 1010.8
20260509151930 72 37 0.0 2.0 0.00 0.00 0.00 78 1010.7
20260509151524 71 359 0.0 1.0 0.00 0.00 0.00 77 1010.0
20260509151420 71 295 0.0 1.0 0.00 0.00 0.00 77 1010.7
20260509150923 71 46 0.0 1.0 0.00 0.00 0.00 77 1010.8
20260509150435 71 46 0.0 1.0 0.00 0.00 0.00 78 1010.8
20260509150038 69 328 0.0 2.0 0.00 0.00 0.00 79 1010.0
20260509145946 70 60 0.0 2.0 0.00 0.00 0.00 80 1010.7
20260509145428 69 60 0.0 2.0 0.00 0.00 0.00 80 1010.7
20260509144939 69 75 0.0 1.0 0.00 0.00 0.00 81 1010.7
20260509144541 69 78 0.0 1.0 0.00 0.00 0.00 78 1010.0
20260509144419 69 18 0.0 1.0 0.00 0.00 0.00 78 1010.7
20260509143931 69 281 0.0 1.0 0.00 0.00 0.00 79 1010.8
20260509143423 68 273 0.0 1.0 0.00 0.00 0.00 82 1010.8
20260509143047 68 276 0.0 1.0 0.00 0.00 0.00 82 1010.2
20260509142923 68 276 0.0 1.0 0.00 0.00 0.00 82 1010.9
20260509142435 68 293 0.0 1.0 0.00 0.00 0.00 81 1011.0
20260509141928 67 293 0.0 0.0 0.00 0.00 0.00 82 1011.0
20260509141554 66 295 0.0 1.0 0.00 0.00 0.00 82 1010.4
20260509141427 67 295 0.0 1.0 0.00 0.00 0.00 82 1011.1
20260509140939 66 262 0.0 1.0 0.00 0.00 0.00 84 1011.1
20260509140450 66 262 0.0 0.0 0.00 0.00 0.00 84 1011.1
20260509135959 65 184 0.0 0.0 0.00 0.00 0.00 86 1011.1
20260509135420 65 173 0.0 2.0 0.00 0.00 0.00 87 1011.2
20260509134928 65 172 0.0 2.0 0.00 0.00 0.00 88 1011.1
20260509134548 64 174 0.0 0.0 0.00 0.00 0.00 87 1010.4
20260509134427 64 174 0.0 0.0 0.00 0.00 0.00 88 1011.1
20260509133938 64 174 0.0 0.0 0.00 0.00 0.00 88 1011.1
20260509133431 63 174 0.0 0.0 0.00 0.00 0.00 88 1011.1
20260509133103 63 174 0.0 0.0 0.00 0.00 0.00 90 1010.3
20260509132933 63 174 0.0 0.0 0.00 0.00 0.00 90 1011.0
20260509132423 62 174 0.0 0.0 0.00 0.00 0.00 90 1010.9
20260509131925 62 174 0.0 0.0 0.00 0.00 0.00 90 1010.9
20260509131610 61 174 0.0 0.0 0.00 0.00 0.00 90 1010.2
20260509131444 62 174 0.0 1.0 0.00 0.00 0.00 90 1010.9
20260509130946 61 174 0.0 1.0 0.00 0.00 0.00 90 1010.9
20260509130506 61 188 0.0 2.0 0.00 0.00 0.00 90 1010.8
20260509130008 60 188 0.0 2.0 0.00 0.00 0.00 90 1010.2
20260509125927 61 188 0.0 2.0 0.00 0.00 0.00 90 1010.8
20260509125438 61 181 1.0 1.0 0.00 0.00 0.00 90 1010.8
20260509124921 60 172 0.0 2.0 0.00 0.00 0.00 91 1010.7
20260509124623 60 172 0.0 2.0 0.00 0.00 0.00 91 1010.1
20260509124537 60 171 1.0 3.0 0.00 0.00 0.00 91 1010.7
20260509123928 60 167 2.0 3.0 0.00 0.00 0.00 91 1010.7
20260509123431 59 169 2.0 3.0 0.00 0.00 0.00 92 1010.7
20260509123009 59 187 1.0 3.0 0.00 0.00 0.00 92 1010.1
20260509122941 59 209 2.0 3.0 0.00 0.00 0.00 92 1010.8
20260509122452 59 167 2.0 3.0 0.00 0.00 0.00 92 1010.7
20260509121943 59 181 2.0 3.0 0.00 0.00 0.00 92 1010.7
20260509121600 58 172 2.0 4.0 0.00 0.00 0.00 92 1010.0
20260509121424 59 198 2.0 4.0 0.00 0.00 0.00 92 1010.6
20260509120936 59 177 3.0 4.0 0.00 0.00 0.00 91 1010.6
20260509120448 60 228 1.0 1.0 0.00 0.00 0.00 91 1010.5
20260509120005 60 52 0.0 0.0 0.00 0.00 0.00 91 1009.7
20260509115928 60 52 0.0 0.0 0.00 0.00 0.00 91 1010.3
20260509115440 60 52 0.0 1.0 0.00 0.00 0.00 91 1010.2
20260509114950 60 52 0.0 1.0 0.00 0.00 0.00 91 1010.0
20260509114511 60 52 0.0 1.0 0.00 0.00 0.00 92 1009.3
20260509114432 60 52 0.0 1.0 0.00 0.00 0.00 92 1010.0
20260509113943 60 52 0.0 1.0 0.00 0.00 0.00 90 1010.0
20260509113425 60 52 0.0 0.0 0.00 0.00 0.00 90 1009.9
20260509113114 60 52 0.0 1.0 0.00 0.00 0.00 91 1009.1
20260509112933 60 52 0.0 2.0 0.00 0.00 0.00 91 1009.8
20260509112425 60 52 0.0 3.0 0.00 0.00 0.00 91 1009.7
20260509111923 60 51 2.0 3.0 0.00 0.00 0.00 91 1009.6
20260509111507 59 51 2.0 4.0 0.00 0.00 0.00 91 1008.9
20260509111433 60 49 3.0 4.0 0.00 0.00 0.00 91 1009.6
20260509110943 60 51 3.0 4.0 0.00 0.00 0.00 91 1009.5
20260509110455 60 54 2.0 3.0 0.00 0.00 0.00 91 1009.5
20260509110057 59 56 2.0 3.0 0.00 0.00 0.00 91 1008.7
20260509105942 60 56 1.0 3.0 0.00 0.00 0.00 91 1009.4
20260509105424 60 58 2.0 3.0 0.00 0.00 0.00 90 1009.1
20260509104956 60 61 2.0 3.0 0.00 0.00 0.00 90 1009.0
20260509104524 59 53 1.0 3.0 0.00 0.00 0.00 90 1008.4
20260509104425 60 58 2.0 3.0 0.00 0.00 0.00 90 1009.0
20260509103927 60 55 2.0 3.0 0.00 0.00 0.00 90 1008.9
20260509103439 60 37 3.0 3.0 0.00 0.00 0.00 89 1008.9
20260509103032 60 53 2.0 3.0 0.00 0.00 0.00 89 1008.3
20260509102930 60 55 2.0 3.0 0.00 0.00 0.00 89 1008.8
20260509102432 61 54 2.0 4.0 0.00 0.00 0.00 89 1008.9
20260509101943 61 56 3.0 4.0 0.00 0.00 0.00 89 1008.9
20260509101520 60 53 2.0 4.0 0.00 0.00 0.00 89 1008.3
20260509101432 61 58 2.0 4.0 0.00 0.00 0.00 89 1008.9
20260509100939 61 56 1.0 4.0 0.00 0.00 0.00 89 1008.8
20260509100450 60 52 2.0 5.0 0.00 0.00 0.00 88 1008.8
20260509100006 60 57 2.0 5.0 0.00 0.00 0.00 89 1008.2
20260509095931 60 60 2.0 5.0 0.00 0.00 0.00 88 1008.8
20260509095443 60 58 2.0 5.0 0.00 0.00 0.00 89 1008.7
20260509094925 60 52 3.0 5.0 0.00 0.00 0.00 89 1008.6
20260509094511 60 54 2.0 5.0 0.00 0.00 0.00 88 1008.0
20260509094453 61 53 3.0 5.0 0.00 0.00 0.00 87 1008.6
20260509093943 61 48 2.0 3.0 0.00 0.00 0.00 86 1008.7
20260509093434 62 44 1.0 2.0 0.00 0.00 0.00 86 1008.8
20260509093022 61 44 0.0 2.0 0.00 0.00 0.00 85 1008.4
20260509092924 62 44 0.0 1.0 0.00 0.00 0.00 85 1009.0
20260509092426 62 35 0.0 1.0 0.00 0.00 0.00 85 1009.0
20260509091937 62 41 0.0 1.0 0.00 0.00 0.00 86 1009.0
20260509091530 61 34 0.0 3.0 0.00 0.00 0.00 87 1008.5
20260509091427 61 6 0.0 3.0 0.00 0.00 0.00 87 1009.1
20260509090927 61 51 0.0 3.0 0.00 0.00 0.00 87 1009.1
20260509090439 61 34 0.0 0.0 0.00 0.00 0.00 86 1009.1
20260509090035 61 34 0.0 0.0 0.00 0.00 0.00 86 1008.5
20260509085945 61 34 0.0 0.0 0.00 0.00 0.00 86 1009.1
20260509085435 61 34 0.0 1.0 0.00 0.00 0.00 86 1009.0
20260509084937 61 34 0.0 2.0 0.00 0.00 0.00 86 1009.0
20260509084530 61 34 0.0 2.0 0.00 0.00 0.00 86 1008.3
20260509084427 61 34 0.0 2.0 0.00 0.00 0.00 86 1008.9
20260509083929 61 355 0.0 3.0 0.00 0.00 0.00 87 1008.8
20260509083441 61 49 0.0 3.0 0.00 0.00 0.00 87 1008.8
20260509083036 60 65 1.0 3.0 0.00 0.00 0.00 87 1008.2
20260509082931 61 41 2.0 3.0 0.00 0.00 0.00 87 1008.7
20260509082441 61 58 0.0 4.0 0.00 0.00 0.00 88 1008.8
20260509081924 60 94 2.0 4.0 0.00 0.00 0.00 89 1008.8
20260509081517 59 78 1.0 4.0 0.00 0.00 0.00 89 1008.3
20260509081434 59 44 2.0 3.0 0.00 0.00 0.00 89 1008.9
20260509080946 60 58 1.0 2.0 0.00 0.00 0.00 88 1008.9
20260509080429 60 236 0.0 3.0 0.00 0.00 0.00 88 1008.9
20260509080034 59 249 0.0 4.0 0.00 0.00 0.00 88 1008.3
20260509075936 60 248 2.0 4.0 0.00 0.00 0.00 88 1008.9
20260509075428 60 247 3.0 5.0 0.00 0.00 0.00 88 1008.8
20260509074930 60 236 4.0 5.0 0.00 0.00 0.00 88 1008.9
20260509074511 59 248 3.0 5.0 0.00 0.00 0.00 88 1008.4
20260509074440 60 235 4.0 5.0 0.00 0.00 0.00 88 1009.0
20260509073948 60 237 4.0 5.0 0.00 0.00 0.00 88 1009.0
20260509073438 60 238 4.0 6.0 0.00 0.00 0.00 88 1008.9
20260509073101 59 230 3.0 6.0 0.00 0.00 0.00 88 1008.3
20260509073009 60 247 5.0 6.0 0.00 0.00 0.00 88 1008.9
20260509072450 60 242 5.0 6.0 0.00 0.00 0.00 88 1009.0
20260509071939 60 240 3.0 5.0 0.00 0.00 0.00 88 1009.0
20260509071527 59 237 3.0 5.0 0.00 0.00 0.00 87 1008.4
20260509071449 60 229 3.0 5.0 0.00 0.00 0.00 87 1009.0
20260509070940 61 245 3.0 6.0 0.00 0.00 0.00 85 1009.0
20260509070452 61 254 3.0 5.0 0.00 0.00 0.00 84 1009.0
20260509070105 61 238 2.0 6.0 0.00 0.00 0.00 83 1008.4
20260509065931 62 240 3.0 6.0 0.00 0.00 0.00 83 1009.0
20260509065423 62 238 3.0 7.0 0.00 0.00 0.00 83 1009.0
20260509064935 62 230 4.0 7.0 0.00 0.00 0.00 83 1009.0
20260509064602 62 243 4.0 7.0 0.00 0.00 0.00 82 1008.4
20260509064434 62 228 4.0 7.0 0.00 0.00 0.00 82 1009.0
20260509063925 63 230 3.0 8.0 0.00 0.00 0.00 82 1009.0
20260509063449 63 221 4.0 8.0 0.00 0.00 0.00 81 1009.0
20260509063045 62 243 4.0 8.0 0.00 0.00 0.00 81 1008.4
20260509062940 63 234 5.0 8.0 0.00 0.00 0.00 81 1009.0
20260509062449 63 231 5.0 8.0 0.00 0.00 0.00 81 1009.0
20260509061951 63 241 5.0 8.0 0.00 0.00 0.00 80 1008.9
20260509061618 63 246 3.0 8.0 0.00 0.00 0.00 80 1008.3
20260509061509 63 238 4.0 8.0 0.00 0.00 0.00 80 1008.9
20260509060928 63 245 4.0 8.0 0.00 0.00 0.00 80 1008.9
20260509060459 63 237 4.0 8.0 0.00 0.00 0.00 80 1008.8
20260509060036 63 243 4.0 7.0 0.00 0.00 0.00 80 1008.4
20260509055948 63 241 4.0 7.0 0.00 0.00 0.00 80 1008.9
20260509055431 63 243 4.0 7.0 0.00 0.00 0.00 80 1009.0
20260509054942 63 247 4.0 6.0 0.00 0.00 0.00 80 1009.2
20260509054548 63 243 3.0 6.0 0.00 0.00 0.00 80 1008.7
20260509054423 63 241 4.0 6.0 0.00 0.00 0.00 80 1009.2
20260509053934 63 224 5.0 6.0 0.00 0.00 0.00 79 1009.2
20260509053424 64 243 5.0 6.0 0.00 0.00 0.00 79 1009.3
20260509053031 63 243 5.0 6.0 0.00 0.00 0.00 79 1008.8
20260509052931 64 240 5.0 6.0 0.00 0.00 0.00 79 1009.5
20260509052433 64 236 4.0 5.0 0.00 0.00 0.00 79 1009.8
20260509051925 64 235 4.0 4.0 0.00 0.00 0.00 78 1009.9
20260509051539 64 226 3.0 4.0 0.00 0.00 0.00 78 1009.4
20260509051434 64 235 3.0 4.0 0.00 0.00 0.00 78 1010.1
20260509050938 64 240 3.0 4.0 0.00 0.00 0.00 78 1010.2
20260509050450 64 232 2.0 4.0 0.00 0.00 0.00 77 1010.2
20260509050041 64 237 3.0 4.0 0.00 0.00 0.00 78 1009.7
20260509045939 64 240 3.0 4.0 0.00 0.00 0.00 78 1010.2
20260509045422 64 235 1.0 3.0 0.00 0.00 0.00 78 1010.5
20260509044934 64 273 2.0 3.0 0.00 0.00 0.00 79 1010.7
20260509044549 63 236 1.0 2.0 0.00 0.00 0.00 78 1010.4
20260509044443 64 238 2.0 2.0 0.00 0.00 0.00 78 1011.0
20260509043924 64 241 1.0 2.0 0.00 0.00 0.00 78 1011.1
20260509043436 64 206 0.0 1.0 0.00 0.00 0.00 78 1011.0
20260509043039 64 132 0.0 1.0 0.00 0.00 0.00 78 1010.4
20260509042943 64 132 0.0 1.0 0.00 0.00 0.00 78 1011.0
20260509042425 64 240 0.0 2.0 0.00 0.00 0.00 78 1011.2
20260509041937 64 245 1.0 3.0 0.00 0.00 0.00 77 1011.5
20260509041547 64 243 1.0 3.0 0.00 0.00 0.00 77 1011.0
20260509041447 64 239 2.0 3.0 0.00 0.00 0.00 77 1011.7
20260509040928 65 248 2.0 3.0 0.00 0.00 0.00 76 1011.4
20260509040457 65 243 1.0 2.0 0.00 0.00 0.00 76 1011.6
20260509040034 64 248 1.0 3.0 0.00 0.00 0.00 76 1010.9
20260509035944 65 248 1.0 3.0 0.00 0.00 0.00 76 1011.5
20260509035456 65 240 2.0 3.0 0.00 0.00 0.00 76 1011.3
20260509034938 65 250 0.0 4.0 0.00 0.00 0.00 76 1011.4
20260509034521 64 256 2.0 4.0 0.00 0.00 0.00 76 1010.6
20260509034428 64 237 2.0 4.0 0.00 0.00 0.00 77 1011.1
20260509033931 64 243 4.0 4.0 0.00 0.00 0.00 77 1011.2
20260509033422 63 245 0.0 3.0 0.00 0.00 0.00 77 1011.7
20260509033030 63 47 2.0 3.0 0.00 0.00 0.00 76 1010.9
20260509032933 64 48 3.0 3.0 0.00 0.00 0.00 75 1011.5
20260509032444 65 49 0.0 0.0 0.00 0.00 0.00 74 1011.6
20260509031956 65 49 0.0 2.0 0.00 0.00 0.00 74 1011.5
20260509031601 65 49 0.0 2.0 0.00 0.00 0.00 74 1011.0
20260509031436 65 49 0.0 2.0 0.00 0.00 0.00 74 1011.5
20260509030947 65 170 1.0 1.0 0.00 0.00 0.00 73 1011.4
20260509030436 65 229 0.0 2.0 0.00 0.00 0.00 73 1011.3
20260509030035 65 150 0.0 2.0 0.00 0.00 0.00 73 1010.6
20260509025926 65 130 0.0 2.0 0.00 0.00 0.00 73 1011.3
20260509025425 66 18 0.0 4.0 0.00 0.00 0.00 73 1011.3
20260509024936 65 249 2.0 4.0 0.00 0.00 0.00 73 1010.7
20260509024534 65 241 3.0 4.0 0.00 0.00 0.00 73 1009.7
20260509024446 65 240 3.0 4.0 0.00 0.00 0.00 73 1010.2
20260509023928 65 238 3.0 4.0 0.00 0.00 0.00 72 1010.0
20260509023439 65 240 3.0 4.0 0.00 0.00 0.00 72 1009.8
20260509023050 65 231 3.0 5.0 0.00 0.00 0.00 72 1009.1
20260509022949 65 232 3.0 5.0 0.00 0.00 0.00 72 1009.7
20260509022431 65 221 2.0 3.0 0.00 0.00 0.00 71 1009.5
20260509021944 66 229 2.0 2.0 0.00 0.00 0.00 70 1009.5
20260509021529 66 242 1.0 2.0 0.00 0.00 0.00 70 1009.0
20260509021433 66 243 1.0 2.0 0.00 0.00 0.00 70 1009.6
20260509020933 66 250 1.0 2.0 0.00 0.00 0.00 69 1009.6
20260509020425 67 233 2.0 4.0 0.00 0.00 0.00 69 1009.4
20260509020034 66 239 1.0 4.0 0.00 0.00 0.00 69 1008.8
20260509015934 66 239 2.0 4.0 0.00 0.00 0.00 69 1009.3
20260509015436 67 235 3.0 4.0 0.00 0.00 0.00 69 1009.0
20260509014927 67 237 3.0 5.0 0.00 0.00 0.00 68 1009.0
20260509014544 66 236 2.0 6.0 0.00 0.00 0.00 68 1008.5
20260509014437 67 238 2.0 6.0 0.00 0.00 0.00 68 1009.1
20260509013939 67 232 3.0 7.0 0.00 0.00 0.00 68 1009.2
20260509013430 67 150 3.0 6.0 0.00 0.00 0.00 69 1009.2
20260509013029 66 233 3.0 4.0 0.00 0.00 0.00 69 1008.6
20260509012956 67 236 4.0 4.0 0.00 0.00 0.00 68 1009.1
20260509012424 67 235 3.0 3.0 0.00 0.00 0.00 67 1009.3
20260509011935 67 231 2.0 3.0 0.00 0.00 0.00 67 1009.3
20260509011556 67 230 2.0 3.0 0.00 0.00 0.00 67 1008.7
20260509011504 68 228 2.0 3.0 0.00 0.00 0.00 67 1009.3
20260509010926 68 238 1.0 2.0 0.00 0.00 0.00 66 1009.2
20260509010437 68 239 2.0 3.0 0.00 0.00 0.00 66 1009.1
20260509010021 68 237 2.0 4.0 0.00 0.00 0.00 66 1008.6
20260509005946 68 229 2.0 4.0 0.00 0.00 0.00 66 1009.1
20260509005457 69 236 2.0 4.0 0.00 0.00 0.00 65 1008.9
20260509004927 69 242 3.0 6.0 0.00 0.00 0.00 64 1008.9
20260509004552 68 236 3.0 6.0 0.00 0.00 0.00 64 1008.4
20260509004428 69 238 3.0 6.0 0.00 0.00 0.00 64 1008.9
20260509003939 69 233 3.0 5.0 0.00 0.00 0.00 64 1008.9
20260509003432 69 233 3.0 6.0 0.00 0.00 0.00 63 1008.9
20260509003106 69 234 2.0 6.0 0.00 0.00 0.00 62 1008.4
20260509002958 70 243 3.0 7.0 0.00 0.00 0.00 62 1008.9
20260509002447 70 225 3.0 7.0 0.00 0.00 0.00 61 1008.9
20260509001928 70 239 3.0 7.0 0.00 0.00 0.00 60 1009.0
20260509001523 70 203 3.0 7.0 0.00 0.00 0.00 59 1008.5
20260509001438 70 238 3.0 7.0 0.00 0.00 0.00 59 1009.0
20260509000921 71 244 3.0 8.0 0.00 0.00 0.00 59 1009.0
20260509000433 71 214 3.0 9.0 0.00 0.00 0.00 58 1009.1
20260509000038 70 228 3.0 9.0 0.00 0.00 0.00 58 1008.6
20260508235943 71 244 4.0 9.0 0.00 0.00 0.00 57 1009.1
20260508235422 71 240 3.0 4.0 0.00 0.00 0.00 57 1009.1
20260508234934 71 242 2.0 8.0 0.00 0.00 0.00 57 1009.3
20260508234540 71 214 4.0 8.0 0.00 0.00 0.00 56 1008.7
20260508234443 72 245 4.0 8.0 0.00 0.00 0.00 56 1009.1
20260508233925 72 198 3.0 5.0 0.00 0.00 0.00 57 1009.2
20260508233437 72 253 3.0 5.0 0.00 0.00 0.00 57 1009.2
20260508233045 71 243 2.0 5.0 0.00 0.00 0.00 56 1008.6
20260508232926 72 245 3.0 5.0 0.00 0.00 0.00 55 1009.3
20260508232429 72 245 2.0 7.0 0.00 0.00 0.00 54 1009.4
20260508231941 72 213 3.0 7.0 0.00 0.00 0.00 55 1009.3
20260508231532 71 230 2.0 6.0 0.00 0.00 0.00 54 1008.7
20260508231430 72 266 3.0 6.0 0.00 0.00 0.00 55 1009.3
20260508230929 72 238 2.0 6.0 0.00 0.00 0.00 53 1009.3
20260508230442 72 189 3.0 6.0 0.00 0.00 0.00 56 1009.2
20260508230043 71 254 2.0 6.0 0.00 0.00 0.00 54 1008.7
20260508225922 72 243 3.0 6.0 0.00 0.00 0.00 54 1009.2
20260508225433 72 243 3.0 6.0 0.00 0.00 0.00 55 1009.2
20260508224924 72 220 3.0 9.0 0.00 0.00 0.00 56 1009.2
20260508224546 72 184 3.0 9.0 0.00 0.00 0.00 53 1008.6
20260508224425 72 196 4.0 7.0 0.00 0.00 0.00 54 1009.1
20260508223936 72 224 4.0 9.0 0.00 0.00 0.00 53 1009.2
20260508223428 73 243 4.0 9.0 0.00 0.00 0.00 55 1009.2
20260508223055 72 250 3.0 8.0 0.00 0.00 0.00 54 1008.6
20260508222928 73 248 3.0 8.0 0.00 0.00 0.00 54 1009.1
20260508222420 73 235 3.0 8.0 0.00 0.00 0.00 53 1009.1
20260508221931 74 232 3.0 7.0 0.00 0.00 0.00 54 1009.1
20260508221542 73 241 2.0 4.0 0.00 0.00 0.00 52 1008.5
20260508221420 74 222 3.0 6.0 0.00 0.00 0.00 52 1009.1